CW2220 Weather Reports


Display with metric or nautical units.
time (UTC)temp
F
wind
direction
speed
MPH
gust
MPH
rain 1hr
in
rain 24hr
in
rain mn
in
humidity
%
barometer
mb
20260504081538 58 0 0.0 0.0 0.00 0.00 0.00 92 1017.1
20260504044543 60 0 0.0 0.0 0.00 0.00 0.00 85 1018.3
20260504043038 61 0 0.0 0.0 0.00 0.00 0.00 83 1018.4
20260504041535 61 0 0.0 0.0 0.00 0.00 0.00 82 1018.6
20260504040044 62 0 0.0 0.0 0.00 0.00 0.00 80 1018.7
20260504034532 62 0 0.0 0.0 0.00 0.00 0.00 78 1018.7
20260504033030 63 0 0.0 1.0 0.00 0.00 0.00 77 1018.9
20260504031536 64 0 0.0 0.0 0.00 0.00 0.00 76 1018.6
20260504030042 64 0 0.0 3.0 0.00 0.00 0.00 74 1018.7
20260504024533 65 0 0.0 1.0 0.00 0.00 0.00 74 1018.6
20260504023033 66 0 0.0 3.0 0.00 0.00 0.00 72 1018.5
20260504021532 66 0 0.0 4.0 0.00 0.00 0.00 71 1018.6
20260504020038 67 266 0.0 3.0 0.00 0.00 0.00 71 1018.5
20260504014535 68 171 1.0 6.0 0.00 0.00 0.00 70 1018.5
20260504013046 68 217 1.0 5.0 0.00 0.00 0.00 66 1018.2
20260504011531 69 268 1.0 6.0 0.00 0.00 0.00 63 1017.9
20260504010030 70 0 0.0 0.0 0.00 0.00 0.00 55 1017.8
20260504004537 71 0 0.0 0.0 0.00 0.00 0.00 52 1017.9
20260504003036 73 0 0.0 0.0 0.00 0.00 0.00 46 1017.8
20260504001536 74 0 0.0 0.0 0.00 0.00 0.00 44 1017.9
20260504000035 76 0 0.0 1.0 0.00 0.00 0.00 41 1018.1
20260503234537 77 0 0.0 4.0 0.00 0.00 0.00 41 1018.0
20260503233040 77 255 1.0 5.0 0.00 0.00 0.00 40 1018.1
20260503231539 78 261 1.0 5.0 0.00 0.00 0.00 39 1018.3
20260503230038 77 0 1.0 6.0 0.00 0.00 0.00 40 1018.2
20260503224533 78 0 1.0 5.0 0.00 0.00 0.00 41 1018.2
20260503223034 79 0 1.0 4.0 0.00 0.00 0.00 38 1018.2
20260503221543 78 327 1.0 5.0 0.00 0.00 0.00 40 1018.3
20260503220036 78 246 0.0 3.0 0.00 0.00 0.00 41 1018.4
20260503214538 76 66 3.0 7.0 0.00 0.00 0.00 42 1018.6
20260503213042 79 352 2.0 5.0 0.00 0.00 0.00 42 1018.9
20260503211548 76 51 1.0 10.0 0.00 0.00 0.00 41 1019.1
20260503210039 76 192 2.0 6.0 0.00 0.00 0.00 40 1019.2
20260503204537 77 336 4.0 8.0 0.00 0.00 0.00 41 1019.5
20260503203036 77 336 1.0 8.0 0.00 0.00 0.00 43 1019.8
20260503201534 77 0 1.0 8.0 0.00 0.00 0.00 45 1020.0
20260503200036 76 86 3.0 12.0 0.00 0.00 0.00 38 1020.3
20260503194542 77 5 2.0 9.0 0.00 0.00 0.00 43 1020.6
20260503193036 77 338 2.0 7.0 0.00 0.00 0.00 40 1020.9
20260503191535 75 310 2.0 7.0 0.00 0.00 0.00 42 1021.2
20260503190044 76 294 1.0 9.0 0.00 0.00 0.00 41 1021.2
20260503184541 78 5 2.0 9.0 0.00 0.00 0.00 39 1021.5
20260503183049 75 360 4.0 9.0 0.00 0.00 0.00 44 1021.6
20260503181536 75 5 2.0 6.0 0.00 0.00 0.00 44 1021.9
20260503180046 75 40 5.0 11.0 0.00 0.00 0.00 39 1021.9
20260503174534 75 15 4.0 9.0 0.00 0.00 0.00 41 1022.0
20260503173100 74 5 2.0 12.0 0.00 0.00 0.00 42 1022.2
20260503171542 74 345 4.0 8.0 0.00 0.00 0.00 42 1022.2